Location: Newark
(47.3004°N, 2.1933°W)
Time: 23:57:25
(UTC+00:00)

OTV 5 (USA 277) - Visible Passes

Search period start: 16 October 2019 00:00
Search period end: 26 October 2019 00:00
Orbit: 310 x 324 km, 54.5° (Epoch: 08 October)

Date Brightness Start Highest point End Pass type
(mag) Time Alt. Az. Time Alt. Az. Time Alt. Az.
16 Oct ? 04:07:19 16° NE 04:07:19 16° NE 04:08:21 10° ENE visible
16 Oct ? 05:38:13 11° NW 05:40:50 74° NNE 05:43:34 10° ESE visible
17 Oct ? 04:21:37 25° NE 04:21:37 25° NE 04:23:24 10° E visible
17 Oct ? 05:52:43 10° WNW 05:55:22 45° SW 05:58:00 10° SE visible
18 Oct ? 04:36:01 45° ENE 04:36:01 45° ENE 04:38:20 10° ESE visible
19 Oct ? 04:50:31 63° SSE 04:50:31 63° SSE 04:52:57 10° SE visible
20 Oct ? 05:05:08 27° SSW 05:05:08 27° SSW 05:07:08 10° SSE visible
21 Oct ? 05:19:54 11° SSW 05:19:54 11° SSW 05:20:20 10° SSW visible
